<?xml version="1.0"?>
<gpx xmlns="http://www.topografix.com/GPX/1/1" xmlns:xsi="http://www.w3.org/2001/XMLSchema-instance" version="1.1" creator="GPX RubyGem 1.0.0 -- http://dougfales.github.io/gpx/" xsi:schemaLocation="http://www.topografix.com/GPX/1/1 http://www.topografix.com/GPX/1/1/gpx.xsd">
  <metadata>
    <name/>
    <time>2026-05-05T04:18:04+00:00</time>
    <bound minlat="90.0" minlon="180.0" maxlat="-90.0" maxlon="-180.0"/>
  </metadata>
  <trk>
    <name/>
    <trkseg>
      <trkpt lat="43.573126" lon="16.531845">
        <time>1970-01-01T00:00:00+00:00</time>
        <ele>346.0</ele>
      </trkpt>
      <trkpt lat="43.572992" lon="16.531669">
        <time>1970-01-01T00:00:00+00:00</time>
        <ele>344.0</ele>
      </trkpt>
      <trkpt lat="43.572932" lon="16.531605">
        <time>1970-01-01T00:00:00+00:00</time>
        <ele>344.0</ele>
      </trkpt>
      <trkpt lat="43.572882" lon="16.531777">
        <time>1970-01-01T00:00:00+00:00</time>
        <ele>344.0</ele>
      </trkpt>
      <trkpt lat="43.572788" lon="16.532079">
        <time>1970-01-01T00:00:00+00:00</time>
        <ele>345.0</ele>
      </trkpt>
      <trkpt lat="43.572621" lon="16.53242">
        <time>1970-01-01T00:00:00+00:00</time>
        <ele>351.0</ele>
      </trkpt>
      <trkpt lat="43.572377" lon="16.532618">
        <time>1970-01-01T00:00:00+00:00</time>
        <ele>353.0</ele>
      </trkpt>
      <trkpt lat="43.572053" lon="16.532819">
        <time>1970-01-01T00:00:00+00:00</time>
        <ele>354.0</ele>
      </trkpt>
      <trkpt lat="43.571758" lon="16.533039">
        <time>1970-01-01T00:00:00+00:00</time>
        <ele>354.0</ele>
      </trkpt>
      <trkpt lat="43.571585" lon="16.5332">
        <time>1970-01-01T00:00:00+00:00</time>
        <ele>353.0</ele>
      </trkpt>
      <trkpt lat="43.57155" lon="16.533392">
        <time>1970-01-01T00:00:00+00:00</time>
        <ele>355.0</ele>
      </trkpt>
      <trkpt lat="43.571531" lon="16.533703">
        <time>1970-01-01T00:00:00+00:00</time>
        <ele>358.0</ele>
      </trkpt>
      <trkpt lat="43.571482" lon="16.533811">
        <time>1970-01-01T00:00:00+00:00</time>
        <ele>359.0</ele>
      </trkpt>
      <trkpt lat="43.571356" lon="16.533899">
        <time>1970-01-01T00:00:00+00:00</time>
        <ele>360.0</ele>
      </trkpt>
      <trkpt lat="43.571519" lon="16.534923">
        <time>1970-01-01T00:00:00+00:00</time>
        <ele>362.0</ele>
      </trkpt>
      <trkpt lat="43.571437" lon="16.535409">
        <time>1970-01-01T00:00:00+00:00</time>
        <ele>361.0</ele>
      </trkpt>
      <trkpt lat="43.571211" lon="16.535513">
        <time>1970-01-01T00:00:00+00:00</time>
        <ele>363.0</ele>
      </trkpt>
      <trkpt lat="43.570914" lon="16.535593">
        <time>1970-01-01T00:00:00+00:00</time>
        <ele>365.0</ele>
      </trkpt>
      <trkpt lat="43.570145" lon="16.535574">
        <time>1970-01-01T00:00:00+00:00</time>
        <ele>369.0</ele>
      </trkpt>
      <trkpt lat="43.570034" lon="16.535479">
        <time>1970-01-01T00:00:00+00:00</time>
        <ele>369.0</ele>
      </trkpt>
      <trkpt lat="43.569905" lon="16.53551">
        <time>1970-01-01T00:00:00+00:00</time>
        <ele>368.0</ele>
      </trkpt>
      <trkpt lat="43.569792" lon="16.535536">
        <time>1970-01-01T00:00:00+00:00</time>
        <ele>367.0</ele>
      </trkpt>
      <trkpt lat="43.569552" lon="16.535262">
        <time>1970-01-01T00:00:00+00:00</time>
        <ele>367.0</ele>
      </trkpt>
      <trkpt lat="43.569344" lon="16.534932">
        <time>1970-01-01T00:00:00+00:00</time>
        <ele>369.0</ele>
      </trkpt>
      <trkpt lat="43.56919" lon="16.534824">
        <time>1970-01-01T00:00:00+00:00</time>
        <ele>370.0</ele>
      </trkpt>
      <trkpt lat="43.569084" lon="16.534904">
        <time>1970-01-01T00:00:00+00:00</time>
        <ele>370.0</ele>
      </trkpt>
      <trkpt lat="43.569022" lon="16.534875">
        <time>1970-01-01T00:00:00+00:00</time>
        <ele>370.0</ele>
      </trkpt>
      <trkpt lat="43.568892" lon="16.534861">
        <time>1970-01-01T00:00:00+00:00</time>
        <ele>371.0</ele>
      </trkpt>
      <trkpt lat="43.568793" lon="16.534956">
        <time>1970-01-01T00:00:00+00:00</time>
        <ele>370.0</ele>
      </trkpt>
      <trkpt lat="43.568725" lon="16.534918">
        <time>1970-01-01T00:00:00+00:00</time>
        <ele>371.0</ele>
      </trkpt>
      <trkpt lat="43.568551" lon="16.534993">
        <time>1970-01-01T00:00:00+00:00</time>
        <ele>371.0</ele>
      </trkpt>
      <trkpt lat="43.568498" lon="16.53485">
        <time>1970-01-01T00:00:00+00:00</time>
        <ele>372.0</ele>
      </trkpt>
      <trkpt lat="43.56831" lon="16.534913">
        <time>1970-01-01T00:00:00+00:00</time>
        <ele>373.0</ele>
      </trkpt>
      <trkpt lat="43.567942" lon="16.534942">
        <time>1970-01-01T00:00:00+00:00</time>
        <ele>375.0</ele>
      </trkpt>
      <trkpt lat="43.567585" lon="16.534913">
        <time>1970-01-01T00:00:00+00:00</time>
        <ele>376.0</ele>
      </trkpt>
      <trkpt lat="43.567351" lon="16.534738">
        <time>1970-01-01T00:00:00+00:00</time>
        <ele>377.0</ele>
      </trkpt>
      <trkpt lat="43.567204" lon="16.534507">
        <time>1970-01-01T00:00:00+00:00</time>
        <ele>378.0</ele>
      </trkpt>
      <trkpt lat="43.566997" lon="16.534692">
        <time>1970-01-01T00:00:00+00:00</time>
        <ele>378.0</ele>
      </trkpt>
      <trkpt lat="43.566996" lon="16.534782">
        <time>1970-01-01T00:00:00+00:00</time>
        <ele>379.0</ele>
      </trkpt>
      <trkpt lat="43.566941" lon="16.534887">
        <time>1970-01-01T00:00:00+00:00</time>
        <ele>380.0</ele>
      </trkpt>
      <trkpt lat="43.566861" lon="16.534983">
        <time>1970-01-01T00:00:00+00:00</time>
        <ele>381.0</ele>
      </trkpt>
      <trkpt lat="43.566801" lon="16.535031">
        <time>1970-01-01T00:00:00+00:00</time>
        <ele>382.0</ele>
      </trkpt>
      <trkpt lat="43.566704" lon="16.535062">
        <time>1970-01-01T00:00:00+00:00</time>
        <ele>383.0</ele>
      </trkpt>
      <trkpt lat="43.56655" lon="16.535193">
        <time>1970-01-01T00:00:00+00:00</time>
        <ele>386.0</ele>
      </trkpt>
      <trkpt lat="43.56647" lon="16.535325">
        <time>1970-01-01T00:00:00+00:00</time>
        <ele>388.0</ele>
      </trkpt>
      <trkpt lat="43.566325" lon="16.535489">
        <time>1970-01-01T00:00:00+00:00</time>
        <ele>390.0</ele>
      </trkpt>
      <trkpt lat="43.566233" lon="16.535732">
        <time>1970-01-01T00:00:00+00:00</time>
        <ele>392.0</ele>
      </trkpt>
      <trkpt lat="43.566069" lon="16.535996">
        <time>1970-01-01T00:00:00+00:00</time>
        <ele>394.0</ele>
      </trkpt>
      <trkpt lat="43.565948" lon="16.536332">
        <time>1970-01-01T00:00:00+00:00</time>
        <ele>396.0</ele>
      </trkpt>
      <trkpt lat="43.565822" lon="16.536404">
        <time>1970-01-01T00:00:00+00:00</time>
        <ele>398.0</ele>
      </trkpt>
      <trkpt lat="43.565752" lon="16.536409">
        <time>1970-01-01T00:00:00+00:00</time>
        <ele>399.0</ele>
      </trkpt>
      <trkpt lat="43.565698" lon="16.536382">
        <time>1970-01-01T00:00:00+00:00</time>
        <ele>400.0</ele>
      </trkpt>
      <trkpt lat="43.565639" lon="16.536423">
        <time>1970-01-01T00:00:00+00:00</time>
        <ele>401.0</ele>
      </trkpt>
      <trkpt lat="43.565569" lon="16.536734">
        <time>1970-01-01T00:00:00+00:00</time>
        <ele>404.0</ele>
      </trkpt>
      <trkpt lat="43.565527" lon="16.536855">
        <time>1970-01-01T00:00:00+00:00</time>
        <ele>405.0</ele>
      </trkpt>
      <trkpt lat="43.565485" lon="16.536894">
        <time>1970-01-01T00:00:00+00:00</time>
        <ele>406.0</ele>
      </trkpt>
      <trkpt lat="43.565417" lon="16.536918">
        <time>1970-01-01T00:00:00+00:00</time>
        <ele>407.0</ele>
      </trkpt>
      <trkpt lat="43.565262" lon="16.536924">
        <time>1970-01-01T00:00:00+00:00</time>
        <ele>409.0</ele>
      </trkpt>
      <trkpt lat="43.565102" lon="16.537012">
        <time>1970-01-01T00:00:00+00:00</time>
        <ele>411.0</ele>
      </trkpt>
      <trkpt lat="43.564821" lon="16.537262">
        <time>1970-01-01T00:00:00+00:00</time>
        <ele>416.0</ele>
      </trkpt>
      <trkpt lat="43.564568" lon="16.537359">
        <time>1970-01-01T00:00:00+00:00</time>
        <ele>421.0</ele>
      </trkpt>
      <trkpt lat="43.564544" lon="16.537593">
        <time>1970-01-01T00:00:00+00:00</time>
        <ele>422.0</ele>
      </trkpt>
      <trkpt lat="43.564655" lon="16.537994">
        <time>1970-01-01T00:00:00+00:00</time>
        <ele>424.0</ele>
      </trkpt>
      <trkpt lat="43.564773" lon="16.538077">
        <time>1970-01-01T00:00:00+00:00</time>
        <ele>423.0</ele>
      </trkpt>
      <trkpt lat="43.564791" lon="16.538157">
        <time>1970-01-01T00:00:00+00:00</time>
        <ele>424.0</ele>
      </trkpt>
      <trkpt lat="43.564801" lon="16.538545">
        <time>1970-01-01T00:00:00+00:00</time>
        <ele>426.0</ele>
      </trkpt>
      <trkpt lat="43.564837" lon="16.538671">
        <time>1970-01-01T00:00:00+00:00</time>
        <ele>427.0</ele>
      </trkpt>
      <trkpt lat="43.564905" lon="16.53874">
        <time>1970-01-01T00:00:00+00:00</time>
        <ele>429.0</ele>
      </trkpt>
      <trkpt lat="43.564955" lon="16.538859">
        <time>1970-01-01T00:00:00+00:00</time>
        <ele>430.0</ele>
      </trkpt>
      <trkpt lat="43.564984" lon="16.538982">
        <time>1970-01-01T00:00:00+00:00</time>
        <ele>432.0</ele>
      </trkpt>
      <trkpt lat="43.564975" lon="16.539084">
        <time>1970-01-01T00:00:00+00:00</time>
        <ele>433.0</ele>
      </trkpt>
      <trkpt lat="43.564927" lon="16.539227">
        <time>1970-01-01T00:00:00+00:00</time>
        <ele>435.0</ele>
      </trkpt>
      <trkpt lat="43.564649" lon="16.539395">
        <time>1970-01-01T00:00:00+00:00</time>
        <ele>436.0</ele>
      </trkpt>
      <trkpt lat="43.564614" lon="16.539494">
        <time>1970-01-01T00:00:00+00:00</time>
        <ele>437.0</ele>
      </trkpt>
      <trkpt lat="43.564606" lon="16.539566">
        <time>1970-01-01T00:00:00+00:00</time>
        <ele>439.0</ele>
      </trkpt>
      <trkpt lat="43.564524" lon="16.539753">
        <time>1970-01-01T00:00:00+00:00</time>
        <ele>441.0</ele>
      </trkpt>
      <trkpt lat="43.564444" lon="16.539814">
        <time>1970-01-01T00:00:00+00:00</time>
        <ele>442.0</ele>
      </trkpt>
      <trkpt lat="43.564434" lon="16.539858">
        <time>1970-01-01T00:00:00+00:00</time>
        <ele>442.0</ele>
      </trkpt>
      <trkpt lat="43.56447" lon="16.539932">
        <time>1970-01-01T00:00:00+00:00</time>
        <ele>445.0</ele>
      </trkpt>
      <trkpt lat="43.564298" lon="16.540196">
        <time>1970-01-01T00:00:00+00:00</time>
        <ele>450.0</ele>
      </trkpt>
      <trkpt lat="43.564241" lon="16.540317">
        <time>1970-01-01T00:00:00+00:00</time>
        <ele>452.0</ele>
      </trkpt>
      <trkpt lat="43.564213" lon="16.54048">
        <time>1970-01-01T00:00:00+00:00</time>
        <ele>456.0</ele>
      </trkpt>
      <trkpt lat="43.564139" lon="16.540559">
        <time>1970-01-01T00:00:00+00:00</time>
        <ele>457.0</ele>
      </trkpt>
      <trkpt lat="43.564115" lon="16.540617">
        <time>1970-01-01T00:00:00+00:00</time>
        <ele>459.0</ele>
      </trkpt>
      <trkpt lat="43.564137" lon="16.540623">
        <time>1970-01-01T00:00:00+00:00</time>
        <ele>459.0</ele>
      </trkpt>
      <trkpt lat="43.564069" lon="16.540694">
        <time>1970-01-01T00:00:00+00:00</time>
        <ele>461.0</ele>
      </trkpt>
      <trkpt lat="43.564059" lon="16.540741">
        <time>1970-01-01T00:00:00+00:00</time>
        <ele>462.0</ele>
      </trkpt>
      <trkpt lat="43.564019" lon="16.540752">
        <time>1970-01-01T00:00:00+00:00</time>
        <ele>461.0</ele>
      </trkpt>
      <trkpt lat="43.563993" lon="16.540791">
        <time>1970-01-01T00:00:00+00:00</time>
        <ele>462.0</ele>
      </trkpt>
      <trkpt lat="43.564003" lon="16.540848">
        <time>1970-01-01T00:00:00+00:00</time>
        <ele>463.0</ele>
      </trkpt>
      <trkpt lat="43.563902" lon="16.541024">
        <time>1970-01-01T00:00:00+00:00</time>
        <ele>462.0</ele>
      </trkpt>
      <trkpt lat="43.563892" lon="16.541077">
        <time>1970-01-01T00:00:00+00:00</time>
        <ele>463.0</ele>
      </trkpt>
      <trkpt lat="43.56393" lon="16.541118">
        <time>1970-01-01T00:00:00+00:00</time>
        <ele>465.0</ele>
      </trkpt>
      <trkpt lat="43.563953" lon="16.541179">
        <time>1970-01-01T00:00:00+00:00</time>
        <ele>466.0</ele>
      </trkpt>
      <trkpt lat="43.563989" lon="16.541165">
        <time>1970-01-01T00:00:00+00:00</time>
        <ele>467.0</ele>
      </trkpt>
      <trkpt lat="43.564041" lon="16.541195">
        <time>1970-01-01T00:00:00+00:00</time>
        <ele>469.0</ele>
      </trkpt>
      <trkpt lat="43.564013" lon="16.541435">
        <time>1970-01-01T00:00:00+00:00</time>
        <ele>470.0</ele>
      </trkpt>
      <trkpt lat="43.564047" lon="16.541487">
        <time>1970-01-01T00:00:00+00:00</time>
        <ele>471.0</ele>
      </trkpt>
      <trkpt lat="43.564077" lon="16.541602">
        <time>1970-01-01T00:00:00+00:00</time>
        <ele>474.0</ele>
      </trkpt>
      <trkpt lat="43.564113" lon="16.541635">
        <time>1970-01-01T00:00:00+00:00</time>
        <ele>475.0</ele>
      </trkpt>
      <trkpt lat="43.564113" lon="16.541685">
        <time>1970-01-01T00:00:00+00:00</time>
        <ele>476.0</ele>
      </trkpt>
      <trkpt lat="43.564095" lon="16.541902">
        <time>1970-01-01T00:00:00+00:00</time>
        <ele>479.0</ele>
      </trkpt>
      <trkpt lat="43.564061" lon="16.542073">
        <time>1970-01-01T00:00:00+00:00</time>
        <ele>480.0</ele>
      </trkpt>
      <trkpt lat="43.564077" lon="16.542131">
        <time>1970-01-01T00:00:00+00:00</time>
        <ele>481.0</ele>
      </trkpt>
      <trkpt lat="43.564067" lon="16.542235">
        <time>1970-01-01T00:00:00+00:00</time>
        <ele>482.0</ele>
      </trkpt>
      <trkpt lat="43.564025" lon="16.542343">
        <time>1970-01-01T00:00:00+00:00</time>
        <ele>483.0</ele>
      </trkpt>
      <trkpt lat="43.564033" lon="16.542423">
        <time>1970-01-01T00:00:00+00:00</time>
        <ele>484.0</ele>
      </trkpt>
      <trkpt lat="43.563975" lon="16.542544">
        <time>1970-01-01T00:00:00+00:00</time>
        <ele>485.0</ele>
      </trkpt>
      <trkpt lat="43.563914" lon="16.542612">
        <time>1970-01-01T00:00:00+00:00</time>
        <ele>486.0</ele>
      </trkpt>
      <trkpt lat="43.563872" lon="16.542761">
        <time>1970-01-01T00:00:00+00:00</time>
        <ele>487.0</ele>
      </trkpt>
      <trkpt lat="43.563844" lon="16.543069">
        <time>1970-01-01T00:00:00+00:00</time>
        <ele>489.0</ele>
      </trkpt>
      <trkpt lat="43.563716" lon="16.543251">
        <time>1970-01-01T00:00:00+00:00</time>
        <ele>493.0</ele>
      </trkpt>
      <trkpt lat="43.56363" lon="16.543339">
        <time>1970-01-01T00:00:00+00:00</time>
        <ele>496.0</ele>
      </trkpt>
      <trkpt lat="43.563533" lon="16.543388">
        <time>1970-01-01T00:00:00+00:00</time>
        <ele>498.0</ele>
      </trkpt>
      <trkpt lat="43.563527" lon="16.543422">
        <time>1970-01-01T00:00:00+00:00</time>
        <ele>499.0</ele>
      </trkpt>
      <trkpt lat="43.563439" lon="16.543433">
        <time>1970-01-01T00:00:00+00:00</time>
        <ele>501.0</ele>
      </trkpt>
      <trkpt lat="43.563391" lon="16.543507">
        <time>1970-01-01T00:00:00+00:00</time>
        <ele>503.0</ele>
      </trkpt>
      <trkpt lat="43.563355" lon="16.543666">
        <time>1970-01-01T00:00:00+00:00</time>
        <ele>506.0</ele>
      </trkpt>
      <trkpt lat="43.563295" lon="16.543749">
        <time>1970-01-01T00:00:00+00:00</time>
        <ele>508.0</ele>
      </trkpt>
      <trkpt lat="43.563218" lon="16.543911">
        <time>1970-01-01T00:00:00+00:00</time>
        <ele>510.0</ele>
      </trkpt>
      <trkpt lat="43.563172" lon="16.543977">
        <time>1970-01-01T00:00:00+00:00</time>
        <ele>510.0</ele>
      </trkpt>
      <trkpt lat="43.563136" lon="16.543972">
        <time>1970-01-01T00:00:00+00:00</time>
        <ele>510.0</ele>
      </trkpt>
      <trkpt lat="43.563132" lon="16.544079">
        <time>1970-01-01T00:00:00+00:00</time>
        <ele>511.0</ele>
      </trkpt>
      <trkpt lat="43.56318" lon="16.544244">
        <time>1970-01-01T00:00:00+00:00</time>
        <ele>513.0</ele>
      </trkpt>
      <trkpt lat="43.563142" lon="16.544511">
        <time>1970-01-01T00:00:00+00:00</time>
        <ele>518.0</ele>
      </trkpt>
      <trkpt lat="43.563172" lon="16.544624">
        <time>1970-01-01T00:00:00+00:00</time>
        <ele>521.0</ele>
      </trkpt>
      <trkpt lat="43.563154" lon="16.544718">
        <time>1970-01-01T00:00:00+00:00</time>
        <ele>523.0</ele>
      </trkpt>
      <trkpt lat="43.563178" lon="16.544792">
        <time>1970-01-01T00:00:00+00:00</time>
        <ele>524.0</ele>
      </trkpt>
      <trkpt lat="43.563168" lon="16.544905">
        <time>1970-01-01T00:00:00+00:00</time>
        <ele>527.0</ele>
      </trkpt>
      <trkpt lat="43.563102" lon="16.544987">
        <time>1970-01-01T00:00:00+00:00</time>
        <ele>528.0</ele>
      </trkpt>
      <trkpt lat="43.563106" lon="16.545026">
        <time>1970-01-01T00:00:00+00:00</time>
        <ele>529.0</ele>
      </trkpt>
      <trkpt lat="43.563132" lon="16.54504">
        <time>1970-01-01T00:00:00+00:00</time>
        <ele>530.0</ele>
      </trkpt>
      <trkpt lat="43.563152" lon="16.545095">
        <time>1970-01-01T00:00:00+00:00</time>
        <ele>531.0</ele>
      </trkpt>
      <trkpt lat="43.563154" lon="16.545274">
        <time>1970-01-01T00:00:00+00:00</time>
        <ele>537.0</ele>
      </trkpt>
      <trkpt lat="43.563124" lon="16.545398">
        <time>1970-01-01T00:00:00+00:00</time>
        <ele>542.0</ele>
      </trkpt>
      <trkpt lat="43.563164" lon="16.545513">
        <time>1970-01-01T00:00:00+00:00</time>
        <ele>545.0</ele>
      </trkpt>
      <trkpt lat="43.563142" lon="16.545775">
        <time>1970-01-01T00:00:00+00:00</time>
        <ele>550.0</ele>
      </trkpt>
      <trkpt lat="43.563062" lon="16.546008">
        <time>1970-01-01T00:00:00+00:00</time>
        <ele>553.0</ele>
      </trkpt>
      <trkpt lat="43.563056" lon="16.546077">
        <time>1970-01-01T00:00:00+00:00</time>
        <ele>554.0</ele>
      </trkpt>
      <trkpt lat="43.563104" lon="16.546215">
        <time>1970-01-01T00:00:00+00:00</time>
        <ele>559.0</ele>
      </trkpt>
      <trkpt lat="43.563116" lon="16.546319">
        <time>1970-01-01T00:00:00+00:00</time>
        <ele>563.0</ele>
      </trkpt>
      <trkpt lat="43.5631" lon="16.546452">
        <time>1970-01-01T00:00:00+00:00</time>
        <ele>567.0</ele>
      </trkpt>
      <trkpt lat="43.563126" lon="16.546484">
        <time>1970-01-01T00:00:00+00:00</time>
        <ele>568.0</ele>
      </trkpt>
      <trkpt lat="43.563164" lon="16.546619">
        <time>1970-01-01T00:00:00+00:00</time>
        <ele>572.0</ele>
      </trkpt>
      <trkpt lat="43.563166" lon="16.546707">
        <time>1970-01-01T00:00:00+00:00</time>
        <ele>574.0</ele>
      </trkpt>
      <trkpt lat="43.56313" lon="16.546826">
        <time>1970-01-01T00:00:00+00:00</time>
        <ele>578.0</ele>
      </trkpt>
      <trkpt lat="43.563166" lon="16.546944">
        <time>1970-01-01T00:00:00+00:00</time>
        <ele>581.0</ele>
      </trkpt>
      <trkpt lat="43.563164" lon="16.547013">
        <time>1970-01-01T00:00:00+00:00</time>
        <ele>584.0</ele>
      </trkpt>
      <trkpt lat="43.563082" lon="16.547195">
        <time>1970-01-01T00:00:00+00:00</time>
        <ele>589.0</ele>
      </trkpt>
      <trkpt lat="43.56311" lon="16.547324">
        <time>1970-01-01T00:00:00+00:00</time>
        <ele>593.0</ele>
      </trkpt>
      <trkpt lat="43.563112" lon="16.547492">
        <time>1970-01-01T00:00:00+00:00</time>
        <ele>596.0</ele>
      </trkpt>
      <trkpt lat="43.563134" lon="16.547572">
        <time>1970-01-01T00:00:00+00:00</time>
        <ele>598.0</ele>
      </trkpt>
      <trkpt lat="43.56308" lon="16.547764">
        <time>1970-01-01T00:00:00+00:00</time>
        <ele>602.0</ele>
      </trkpt>
      <trkpt lat="43.563076" lon="16.547907">
        <time>1970-01-01T00:00:00+00:00</time>
        <ele>604.0</ele>
      </trkpt>
      <trkpt lat="43.56304" lon="16.547982">
        <time>1970-01-01T00:00:00+00:00</time>
        <ele>606.0</ele>
      </trkpt>
      <trkpt lat="43.56295" lon="16.548062">
        <time>1970-01-01T00:00:00+00:00</time>
        <ele>609.0</ele>
      </trkpt>
      <trkpt lat="43.562833" lon="16.548108">
        <time>1970-01-01T00:00:00+00:00</time>
        <ele>608.0</ele>
      </trkpt>
      <trkpt lat="43.562823" lon="16.548169">
        <time>1970-01-01T00:00:00+00:00</time>
        <ele>609.0</ele>
      </trkpt>
      <trkpt lat="43.562785" lon="16.548205">
        <time>1970-01-01T00:00:00+00:00</time>
        <ele>609.0</ele>
      </trkpt>
      <trkpt lat="43.562721" lon="16.54835">
        <time>1970-01-01T00:00:00+00:00</time>
        <ele>611.0</ele>
      </trkpt>
      <trkpt lat="43.562689" lon="16.548386">
        <time>1970-01-01T00:00:00+00:00</time>
        <ele>611.0</ele>
      </trkpt>
      <trkpt lat="43.562659" lon="16.548356">
        <time>1970-01-01T00:00:00+00:00</time>
        <ele>609.0</ele>
      </trkpt>
      <trkpt lat="43.562661" lon="16.548422">
        <time>1970-01-01T00:00:00+00:00</time>
        <ele>611.0</ele>
      </trkpt>
      <trkpt lat="43.562587" lon="16.548499">
        <time>1970-01-01T00:00:00+00:00</time>
        <ele>612.0</ele>
      </trkpt>
      <trkpt lat="43.56255" lon="16.548513">
        <time>1970-01-01T00:00:00+00:00</time>
        <ele>612.0</ele>
      </trkpt>
      <trkpt lat="43.562514" lon="16.548645">
        <time>1970-01-01T00:00:00+00:00</time>
        <ele>615.0</ele>
      </trkpt>
      <trkpt lat="43.56253" lon="16.548697">
        <time>1970-01-01T00:00:00+00:00</time>
        <ele>618.0</ele>
      </trkpt>
      <trkpt lat="43.56252" lon="16.548755">
        <time>1970-01-01T00:00:00+00:00</time>
        <ele>620.0</ele>
      </trkpt>
      <trkpt lat="43.562472" lon="16.548777">
        <time>1970-01-01T00:00:00+00:00</time>
        <ele>619.0</ele>
      </trkpt>
      <trkpt lat="43.562464" lon="16.548989">
        <time>1970-01-01T00:00:00+00:00</time>
        <ele>623.0</ele>
      </trkpt>
      <trkpt lat="43.56244" lon="16.549036">
        <time>1970-01-01T00:00:00+00:00</time>
        <ele>623.0</ele>
      </trkpt>
      <trkpt lat="43.562424" lon="16.549256">
        <time>1970-01-01T00:00:00+00:00</time>
        <ele>623.0</ele>
      </trkpt>
      <trkpt lat="43.562456" lon="16.549388">
        <time>1970-01-01T00:00:00+00:00</time>
        <ele>625.0</ele>
      </trkpt>
      <trkpt lat="43.562422" lon="16.549556">
        <time>1970-01-01T00:00:00+00:00</time>
        <ele>625.0</ele>
      </trkpt>
      <trkpt lat="43.562376" lon="16.549677">
        <time>1970-01-01T00:00:00+00:00</time>
        <ele>625.0</ele>
      </trkpt>
      <trkpt lat="43.562404" lon="16.549729">
        <time>1970-01-01T00:00:00+00:00</time>
        <ele>626.0</ele>
      </trkpt>
      <trkpt lat="43.562402" lon="16.54987">
        <time>1970-01-01T00:00:00+00:00</time>
        <ele>627.0</ele>
      </trkpt>
      <trkpt lat="43.562332" lon="16.550192">
        <time>1970-01-01T00:00:00+00:00</time>
        <ele>629.0</ele>
      </trkpt>
      <trkpt lat="43.562358" lon="16.550291">
        <time>1970-01-01T00:00:00+00:00</time>
        <ele>631.0</ele>
      </trkpt>
      <trkpt lat="43.562268" lon="16.550541">
        <time>1970-01-01T00:00:00+00:00</time>
        <ele>629.0</ele>
      </trkpt>
      <trkpt lat="43.562268" lon="16.550866">
        <time>1970-01-01T00:00:00+00:00</time>
        <ele>631.0</ele>
      </trkpt>
      <trkpt lat="43.56224" lon="16.551086">
        <time>1970-01-01T00:00:00+00:00</time>
        <ele>633.0</ele>
      </trkpt>
      <trkpt lat="43.562193" lon="16.551262">
        <time>1970-01-01T00:00:00+00:00</time>
        <ele>635.0</ele>
      </trkpt>
      <trkpt lat="43.562205" lon="16.55135">
        <time>1970-01-01T00:00:00+00:00</time>
        <ele>636.0</ele>
      </trkpt>
      <trkpt lat="43.562177" lon="16.551463">
        <time>1970-01-01T00:00:00+00:00</time>
        <ele>638.0</ele>
      </trkpt>
      <trkpt lat="43.562097" lon="16.551658">
        <time>1970-01-01T00:00:00+00:00</time>
        <ele>642.0</ele>
      </trkpt>
      <trkpt lat="43.561917" lon="16.551906">
        <time>1970-01-01T00:00:00+00:00</time>
        <ele>648.0</ele>
      </trkpt>
      <trkpt lat="43.56189" lon="16.551983">
        <time>1970-01-01T00:00:00+00:00</time>
        <ele>649.0</ele>
      </trkpt>
      <trkpt lat="43.561888" lon="16.552107">
        <time>1970-01-01T00:00:00+00:00</time>
        <ele>651.0</ele>
      </trkpt>
      <trkpt lat="43.561786" lon="16.552093">
        <time>1970-01-01T00:00:00+00:00</time>
        <ele>652.0</ele>
      </trkpt>
      <trkpt lat="43.561698" lon="16.552209">
        <time>1970-01-01T00:00:00+00:00</time>
        <ele>654.0</ele>
      </trkpt>
      <trkpt lat="43.561624" lon="16.552234">
        <time>1970-01-01T00:00:00+00:00</time>
        <ele>655.0</ele>
      </trkpt>
      <trkpt lat="43.561576" lon="16.552289">
        <time>1970-01-01T00:00:00+00:00</time>
        <ele>657.0</ele>
      </trkpt>
      <trkpt lat="43.561556" lon="16.552371">
        <time>1970-01-01T00:00:00+00:00</time>
        <ele>659.0</ele>
      </trkpt>
      <trkpt lat="43.561491" lon="16.552415">
        <time>1970-01-01T00:00:00+00:00</time>
        <ele>661.0</ele>
      </trkpt>
      <trkpt lat="43.561495" lon="16.552523">
        <time>1970-01-01T00:00:00+00:00</time>
        <ele>663.0</ele>
      </trkpt>
      <trkpt lat="43.561383" lon="16.552699">
        <time>1970-01-01T00:00:00+00:00</time>
        <ele>668.0</ele>
      </trkpt>
      <trkpt lat="43.561369" lon="16.552792">
        <time>1970-01-01T00:00:00+00:00</time>
        <ele>670.0</ele>
      </trkpt>
      <trkpt lat="43.561301" lon="16.552878">
        <time>1970-01-01T00:00:00+00:00</time>
        <ele>673.0</ele>
      </trkpt>
      <trkpt lat="43.561186" lon="16.552966">
        <time>1970-01-01T00:00:00+00:00</time>
        <ele>676.0</ele>
      </trkpt>
      <trkpt lat="43.561092" lon="16.552977">
        <time>1970-01-01T00:00:00+00:00</time>
        <ele>679.0</ele>
      </trkpt>
      <trkpt lat="43.560922" lon="16.553057">
        <time>1970-01-01T00:00:00+00:00</time>
        <ele>685.0</ele>
      </trkpt>
      <trkpt lat="43.560868" lon="16.553051">
        <time>1970-01-01T00:00:00+00:00</time>
        <ele>686.0</ele>
      </trkpt>
      <trkpt lat="43.560747" lon="16.553373">
        <time>1970-01-01T00:00:00+00:00</time>
        <ele>694.0</ele>
      </trkpt>
      <trkpt lat="43.560629" lon="16.553464">
        <time>1970-01-01T00:00:00+00:00</time>
        <ele>697.0</ele>
      </trkpt>
      <trkpt lat="43.560517" lon="16.553634">
        <time>1970-01-01T00:00:00+00:00</time>
        <ele>700.0</ele>
      </trkpt>
      <trkpt lat="43.560378" lon="16.553703">
        <time>1970-01-01T00:00:00+00:00</time>
        <ele>703.0</ele>
      </trkpt>
      <trkpt lat="43.560262" lon="16.553797">
        <time>1970-01-01T00:00:00+00:00</time>
        <ele>707.0</ele>
      </trkpt>
      <trkpt lat="43.560266" lon="16.553885">
        <time>1970-01-01T00:00:00+00:00</time>
        <ele>708.0</ele>
      </trkpt>
      <trkpt lat="43.560248" lon="16.553995">
        <time>1970-01-01T00:00:00+00:00</time>
        <ele>710.0</ele>
      </trkpt>
      <trkpt lat="43.56016" lon="16.554204">
        <time>1970-01-01T00:00:00+00:00</time>
        <ele>713.0</ele>
      </trkpt>
      <trkpt lat="43.560071" lon="16.554325">
        <time>1970-01-01T00:00:00+00:00</time>
        <ele>716.0</ele>
      </trkpt>
      <trkpt lat="43.559929" lon="16.554454">
        <time>1970-01-01T00:00:00+00:00</time>
        <ele>719.0</ele>
      </trkpt>
      <trkpt lat="43.559841" lon="16.554587">
        <time>1970-01-01T00:00:00+00:00</time>
        <ele>720.0</ele>
      </trkpt>
      <trkpt lat="43.559748" lon="16.554606">
        <time>1970-01-01T00:00:00+00:00</time>
        <ele>723.0</ele>
      </trkpt>
      <trkpt lat="43.55967" lon="16.554683">
        <time>1970-01-01T00:00:00+00:00</time>
        <ele>725.0</ele>
      </trkpt>
      <trkpt lat="43.559618" lon="16.554785">
        <time>1970-01-01T00:00:00+00:00</time>
        <ele>725.0</ele>
      </trkpt>
      <trkpt lat="43.55956" lon="16.554845">
        <time>1970-01-01T00:00:00+00:00</time>
        <ele>725.0</ele>
      </trkpt>
      <trkpt lat="43.559365" lon="16.554939">
        <time>1970-01-01T00:00:00+00:00</time>
        <ele>728.0</ele>
      </trkpt>
      <trkpt lat="43.559259" lon="16.554944">
        <time>1970-01-01T00:00:00+00:00</time>
        <ele>731.0</ele>
      </trkpt>
      <trkpt lat="43.559191" lon="16.555005">
        <time>1970-01-01T00:00:00+00:00</time>
        <ele>733.0</ele>
      </trkpt>
      <trkpt lat="43.559034" lon="16.555046">
        <time>1970-01-01T00:00:00+00:00</time>
        <ele>738.0</ele>
      </trkpt>
      <trkpt lat="43.558966" lon="16.555126">
        <time>1970-01-01T00:00:00+00:00</time>
        <ele>738.0</ele>
      </trkpt>
      <trkpt lat="43.55879" lon="16.555272">
        <time>1970-01-01T00:00:00+00:00</time>
        <ele>739.0</ele>
      </trkpt>
      <trkpt lat="43.558685" lon="16.555415">
        <time>1970-01-01T00:00:00+00:00</time>
        <ele>740.0</ele>
      </trkpt>
      <trkpt lat="43.558609" lon="16.555478">
        <time>1970-01-01T00:00:00+00:00</time>
        <ele>742.0</ele>
      </trkpt>
      <trkpt lat="43.558565" lon="16.555613">
        <time>1970-01-01T00:00:00+00:00</time>
        <ele>744.0</ele>
      </trkpt>
      <trkpt lat="43.558503" lon="16.555715">
        <time>1970-01-01T00:00:00+00:00</time>
        <ele>745.0</ele>
      </trkpt>
      <trkpt lat="43.558411" lon="16.555781">
        <time>1970-01-01T00:00:00+00:00</time>
        <ele>747.0</ele>
      </trkpt>
      <trkpt lat="43.55833" lon="16.555872">
        <time>1970-01-01T00:00:00+00:00</time>
        <ele>749.0</ele>
      </trkpt>
      <trkpt lat="43.55823" lon="16.555913">
        <time>1970-01-01T00:00:00+00:00</time>
        <ele>751.0</ele>
      </trkpt>
      <trkpt lat="43.55812" lon="16.556111">
        <time>1970-01-01T00:00:00+00:00</time>
        <ele>755.0</ele>
      </trkpt>
      <trkpt lat="43.55806" lon="16.556164">
        <time>1970-01-01T00:00:00+00:00</time>
        <ele>757.0</ele>
      </trkpt>
      <trkpt lat="43.558009" lon="16.556271">
        <time>1970-01-01T00:00:00+00:00</time>
        <ele>760.0</ele>
      </trkpt>
      <trkpt lat="43.557933" lon="16.556334">
        <time>1970-01-01T00:00:00+00:00</time>
        <ele>762.0</ele>
      </trkpt>
      <trkpt lat="43.557897" lon="16.556552">
        <time>1970-01-01T00:00:00+00:00</time>
        <ele>765.0</ele>
      </trkpt>
      <trkpt lat="43.557763" lon="16.556714">
        <time>1970-01-01T00:00:00+00:00</time>
        <ele>765.0</ele>
      </trkpt>
      <trkpt lat="43.557689" lon="16.557088">
        <time>1970-01-01T00:00:00+00:00</time>
        <ele>770.0</ele>
      </trkpt>
      <trkpt lat="43.557656" lon="16.557152">
        <time>1970-01-01T00:00:00+00:00</time>
        <ele>771.0</ele>
      </trkpt>
      <trkpt lat="43.557592" lon="16.557201">
        <time>1970-01-01T00:00:00+00:00</time>
        <ele>769.0</ele>
      </trkpt>
      <trkpt lat="43.557612" lon="16.557253">
        <time>1970-01-01T00:00:00+00:00</time>
        <ele>771.0</ele>
      </trkpt>
      <trkpt lat="43.55757" lon="16.557339">
        <time>1970-01-01T00:00:00+00:00</time>
        <ele>771.0</ele>
      </trkpt>
      <trkpt lat="43.55754" lon="16.557468">
        <time>1970-01-01T00:00:00+00:00</time>
        <ele>773.0</ele>
      </trkpt>
      <trkpt lat="43.557516" lon="16.55776">
        <time>1970-01-01T00:00:00+00:00</time>
        <ele>780.0</ele>
      </trkpt>
      <trkpt lat="43.55749" lon="16.55784">
        <time>1970-01-01T00:00:00+00:00</time>
        <ele>782.0</ele>
      </trkpt>
      <trkpt lat="43.557492" lon="16.558021">
        <time>1970-01-01T00:00:00+00:00</time>
        <ele>788.0</ele>
      </trkpt>
      <trkpt lat="43.557466" lon="16.558206">
        <time>1970-01-01T00:00:00+00:00</time>
        <ele>791.0</ele>
      </trkpt>
      <trkpt lat="43.55745" lon="16.558533">
        <time>1970-01-01T00:00:00+00:00</time>
        <ele>795.0</ele>
      </trkpt>
      <trkpt lat="43.557482" lon="16.558607">
        <time>1970-01-01T00:00:00+00:00</time>
        <ele>797.0</ele>
      </trkpt>
      <trkpt lat="43.557512" lon="16.559037">
        <time>1970-01-01T00:00:00+00:00</time>
        <ele>801.0</ele>
      </trkpt>
      <trkpt lat="43.557508" lon="16.559185">
        <time>1970-01-01T00:00:00+00:00</time>
        <ele>802.0</ele>
      </trkpt>
      <trkpt lat="43.557534" lon="16.559329">
        <time>1970-01-01T00:00:00+00:00</time>
        <ele>803.0</ele>
      </trkpt>
      <trkpt lat="43.55754" lon="16.560077">
        <time>1970-01-01T00:00:00+00:00</time>
        <ele>816.0</ele>
      </trkpt>
      <trkpt lat="43.55747" lon="16.56035">
        <time>1970-01-01T00:00:00+00:00</time>
        <ele>822.0</ele>
      </trkpt>
      <trkpt lat="43.55737" lon="16.560589">
        <time>1970-01-01T00:00:00+00:00</time>
        <ele>825.0</ele>
      </trkpt>
      <trkpt lat="43.557336" lon="16.561035">
        <time>1970-01-01T00:00:00+00:00</time>
        <ele>832.0</ele>
      </trkpt>
      <trkpt lat="43.55734" lon="16.561172">
        <time>1970-01-01T00:00:00+00:00</time>
        <ele>835.0</ele>
      </trkpt>
      <trkpt lat="43.557414" lon="16.561453">
        <time>1970-01-01T00:00:00+00:00</time>
        <ele>840.0</ele>
      </trkpt>
      <trkpt lat="43.557458" lon="16.561836">
        <time>1970-01-01T00:00:00+00:00</time>
        <ele>845.0</ele>
      </trkpt>
      <trkpt lat="43.55745" lon="16.561951">
        <time>1970-01-01T00:00:00+00:00</time>
        <ele>846.0</ele>
      </trkpt>
      <trkpt lat="43.55749" lon="16.562136">
        <time>1970-01-01T00:00:00+00:00</time>
        <ele>848.0</ele>
      </trkpt>
      <trkpt lat="43.557496" lon="16.562225">
        <time>1970-01-01T00:00:00+00:00</time>
        <ele>848.0</ele>
      </trkpt>
      <trkpt lat="43.557496" lon="16.562225">
        <time>1970-01-01T00:00:00+00:00</time>
        <ele>848.0</ele>
      </trkpt>
      <trkpt lat="43.55749" lon="16.562136">
        <time>1970-01-01T00:00:00+00:00</time>
        <ele>848.0</ele>
      </trkpt>
      <trkpt lat="43.55745" lon="16.561951">
        <time>1970-01-01T00:00:00+00:00</time>
        <ele>846.0</ele>
      </trkpt>
      <trkpt lat="43.557458" lon="16.561836">
        <time>1970-01-01T00:00:00+00:00</time>
        <ele>845.0</ele>
      </trkpt>
      <trkpt lat="43.557414" lon="16.561453">
        <time>1970-01-01T00:00:00+00:00</time>
        <ele>840.0</ele>
      </trkpt>
      <trkpt lat="43.55734" lon="16.561172">
        <time>1970-01-01T00:00:00+00:00</time>
        <ele>835.0</ele>
      </trkpt>
      <trkpt lat="43.557336" lon="16.561035">
        <time>1970-01-01T00:00:00+00:00</time>
        <ele>832.0</ele>
      </trkpt>
      <trkpt lat="43.55737" lon="16.560589">
        <time>1970-01-01T00:00:00+00:00</time>
        <ele>825.0</ele>
      </trkpt>
      <trkpt lat="43.55747" lon="16.56035">
        <time>1970-01-01T00:00:00+00:00</time>
        <ele>822.0</ele>
      </trkpt>
      <trkpt lat="43.55754" lon="16.560077">
        <time>1970-01-01T00:00:00+00:00</time>
        <ele>816.0</ele>
      </trkpt>
      <trkpt lat="43.557534" lon="16.559329">
        <time>1970-01-01T00:00:00+00:00</time>
        <ele>803.0</ele>
      </trkpt>
      <trkpt lat="43.557508" lon="16.559185">
        <time>1970-01-01T00:00:00+00:00</time>
        <ele>802.0</ele>
      </trkpt>
      <trkpt lat="43.557512" lon="16.559037">
        <time>1970-01-01T00:00:00+00:00</time>
        <ele>801.0</ele>
      </trkpt>
      <trkpt lat="43.557482" lon="16.558607">
        <time>1970-01-01T00:00:00+00:00</time>
        <ele>797.0</ele>
      </trkpt>
      <trkpt lat="43.55745" lon="16.558533">
        <time>1970-01-01T00:00:00+00:00</time>
        <ele>795.0</ele>
      </trkpt>
      <trkpt lat="43.557466" lon="16.558206">
        <time>1970-01-01T00:00:00+00:00</time>
        <ele>791.0</ele>
      </trkpt>
      <trkpt lat="43.557492" lon="16.558021">
        <time>1970-01-01T00:00:00+00:00</time>
        <ele>788.0</ele>
      </trkpt>
      <trkpt lat="43.55749" lon="16.55784">
        <time>1970-01-01T00:00:00+00:00</time>
        <ele>782.0</ele>
      </trkpt>
      <trkpt lat="43.557516" lon="16.55776">
        <time>1970-01-01T00:00:00+00:00</time>
        <ele>780.0</ele>
      </trkpt>
      <trkpt lat="43.55754" lon="16.557468">
        <time>1970-01-01T00:00:00+00:00</time>
        <ele>773.0</ele>
      </trkpt>
      <trkpt lat="43.55757" lon="16.557339">
        <time>1970-01-01T00:00:00+00:00</time>
        <ele>771.0</ele>
      </trkpt>
      <trkpt lat="43.557612" lon="16.557253">
        <time>1970-01-01T00:00:00+00:00</time>
        <ele>771.0</ele>
      </trkpt>
      <trkpt lat="43.557592" lon="16.557201">
        <time>1970-01-01T00:00:00+00:00</time>
        <ele>769.0</ele>
      </trkpt>
      <trkpt lat="43.557656" lon="16.557152">
        <time>1970-01-01T00:00:00+00:00</time>
        <ele>771.0</ele>
      </trkpt>
      <trkpt lat="43.557689" lon="16.557088">
        <time>1970-01-01T00:00:00+00:00</time>
        <ele>770.0</ele>
      </trkpt>
      <trkpt lat="43.557763" lon="16.556714">
        <time>1970-01-01T00:00:00+00:00</time>
        <ele>765.0</ele>
      </trkpt>
      <trkpt lat="43.557897" lon="16.556552">
        <time>1970-01-01T00:00:00+00:00</time>
        <ele>765.0</ele>
      </trkpt>
      <trkpt lat="43.557933" lon="16.556334">
        <time>1970-01-01T00:00:00+00:00</time>
        <ele>762.0</ele>
      </trkpt>
      <trkpt lat="43.558009" lon="16.556271">
        <time>1970-01-01T00:00:00+00:00</time>
        <ele>760.0</ele>
      </trkpt>
      <trkpt lat="43.55806" lon="16.556164">
        <time>1970-01-01T00:00:00+00:00</time>
        <ele>757.0</ele>
      </trkpt>
      <trkpt lat="43.55812" lon="16.556111">
        <time>1970-01-01T00:00:00+00:00</time>
        <ele>755.0</ele>
      </trkpt>
      <trkpt lat="43.55823" lon="16.555913">
        <time>1970-01-01T00:00:00+00:00</time>
        <ele>751.0</ele>
      </trkpt>
      <trkpt lat="43.55833" lon="16.555872">
        <time>1970-01-01T00:00:00+00:00</time>
        <ele>749.0</ele>
      </trkpt>
      <trkpt lat="43.558411" lon="16.555781">
        <time>1970-01-01T00:00:00+00:00</time>
        <ele>747.0</ele>
      </trkpt>
      <trkpt lat="43.558503" lon="16.555715">
        <time>1970-01-01T00:00:00+00:00</time>
        <ele>745.0</ele>
      </trkpt>
      <trkpt lat="43.558565" lon="16.555613">
        <time>1970-01-01T00:00:00+00:00</time>
        <ele>744.0</ele>
      </trkpt>
      <trkpt lat="43.558609" lon="16.555478">
        <time>1970-01-01T00:00:00+00:00</time>
        <ele>742.0</ele>
      </trkpt>
      <trkpt lat="43.558685" lon="16.555415">
        <time>1970-01-01T00:00:00+00:00</time>
        <ele>740.0</ele>
      </trkpt>
      <trkpt lat="43.55879" lon="16.555272">
        <time>1970-01-01T00:00:00+00:00</time>
        <ele>739.0</ele>
      </trkpt>
      <trkpt lat="43.558966" lon="16.555126">
        <time>1970-01-01T00:00:00+00:00</time>
        <ele>738.0</ele>
      </trkpt>
      <trkpt lat="43.559034" lon="16.555046">
        <time>1970-01-01T00:00:00+00:00</time>
        <ele>738.0</ele>
      </trkpt>
      <trkpt lat="43.559191" lon="16.555005">
        <time>1970-01-01T00:00:00+00:00</time>
        <ele>733.0</ele>
      </trkpt>
      <trkpt lat="43.559259" lon="16.554944">
        <time>1970-01-01T00:00:00+00:00</time>
        <ele>731.0</ele>
      </trkpt>
      <trkpt lat="43.559365" lon="16.554939">
        <time>1970-01-01T00:00:00+00:00</time>
        <ele>728.0</ele>
      </trkpt>
      <trkpt lat="43.55956" lon="16.554845">
        <time>1970-01-01T00:00:00+00:00</time>
        <ele>725.0</ele>
      </trkpt>
      <trkpt lat="43.559618" lon="16.554785">
        <time>1970-01-01T00:00:00+00:00</time>
        <ele>725.0</ele>
      </trkpt>
      <trkpt lat="43.55967" lon="16.554683">
        <time>1970-01-01T00:00:00+00:00</time>
        <ele>725.0</ele>
      </trkpt>
      <trkpt lat="43.559748" lon="16.554606">
        <time>1970-01-01T00:00:00+00:00</time>
        <ele>723.0</ele>
      </trkpt>
      <trkpt lat="43.559841" lon="16.554587">
        <time>1970-01-01T00:00:00+00:00</time>
        <ele>720.0</ele>
      </trkpt>
      <trkpt lat="43.559929" lon="16.554454">
        <time>1970-01-01T00:00:00+00:00</time>
        <ele>719.0</ele>
      </trkpt>
      <trkpt lat="43.560071" lon="16.554325">
        <time>1970-01-01T00:00:00+00:00</time>
        <ele>716.0</ele>
      </trkpt>
      <trkpt lat="43.56016" lon="16.554204">
        <time>1970-01-01T00:00:00+00:00</time>
        <ele>713.0</ele>
      </trkpt>
      <trkpt lat="43.560248" lon="16.553995">
        <time>1970-01-01T00:00:00+00:00</time>
        <ele>710.0</ele>
      </trkpt>
      <trkpt lat="43.560266" lon="16.553885">
        <time>1970-01-01T00:00:00+00:00</time>
        <ele>708.0</ele>
      </trkpt>
      <trkpt lat="43.560262" lon="16.553797">
        <time>1970-01-01T00:00:00+00:00</time>
        <ele>707.0</ele>
      </trkpt>
      <trkpt lat="43.560378" lon="16.553703">
        <time>1970-01-01T00:00:00+00:00</time>
        <ele>703.0</ele>
      </trkpt>
      <trkpt lat="43.560517" lon="16.553634">
        <time>1970-01-01T00:00:00+00:00</time>
        <ele>700.0</ele>
      </trkpt>
      <trkpt lat="43.560629" lon="16.553464">
        <time>1970-01-01T00:00:00+00:00</time>
        <ele>697.0</ele>
      </trkpt>
      <trkpt lat="43.560747" lon="16.553373">
        <time>1970-01-01T00:00:00+00:00</time>
        <ele>694.0</ele>
      </trkpt>
      <trkpt lat="43.560868" lon="16.553051">
        <time>1970-01-01T00:00:00+00:00</time>
        <ele>686.0</ele>
      </trkpt>
      <trkpt lat="43.560922" lon="16.553057">
        <time>1970-01-01T00:00:00+00:00</time>
        <ele>685.0</ele>
      </trkpt>
      <trkpt lat="43.561092" lon="16.552977">
        <time>1970-01-01T00:00:00+00:00</time>
        <ele>679.0</ele>
      </trkpt>
      <trkpt lat="43.561186" lon="16.552966">
        <time>1970-01-01T00:00:00+00:00</time>
        <ele>676.0</ele>
      </trkpt>
      <trkpt lat="43.561301" lon="16.552878">
        <time>1970-01-01T00:00:00+00:00</time>
        <ele>673.0</ele>
      </trkpt>
      <trkpt lat="43.561369" lon="16.552792">
        <time>1970-01-01T00:00:00+00:00</time>
        <ele>670.0</ele>
      </trkpt>
      <trkpt lat="43.561383" lon="16.552699">
        <time>1970-01-01T00:00:00+00:00</time>
        <ele>668.0</ele>
      </trkpt>
      <trkpt lat="43.561495" lon="16.552523">
        <time>1970-01-01T00:00:00+00:00</time>
        <ele>663.0</ele>
      </trkpt>
      <trkpt lat="43.561491" lon="16.552415">
        <time>1970-01-01T00:00:00+00:00</time>
        <ele>661.0</ele>
      </trkpt>
      <trkpt lat="43.561556" lon="16.552371">
        <time>1970-01-01T00:00:00+00:00</time>
        <ele>659.0</ele>
      </trkpt>
      <trkpt lat="43.561576" lon="16.552289">
        <time>1970-01-01T00:00:00+00:00</time>
        <ele>657.0</ele>
      </trkpt>
      <trkpt lat="43.561624" lon="16.552234">
        <time>1970-01-01T00:00:00+00:00</time>
        <ele>655.0</ele>
      </trkpt>
      <trkpt lat="43.561698" lon="16.552209">
        <time>1970-01-01T00:00:00+00:00</time>
        <ele>654.0</ele>
      </trkpt>
      <trkpt lat="43.561786" lon="16.552093">
        <time>1970-01-01T00:00:00+00:00</time>
        <ele>652.0</ele>
      </trkpt>
      <trkpt lat="43.561888" lon="16.552107">
        <time>1970-01-01T00:00:00+00:00</time>
        <ele>651.0</ele>
      </trkpt>
      <trkpt lat="43.56189" lon="16.551983">
        <time>1970-01-01T00:00:00+00:00</time>
        <ele>649.0</ele>
      </trkpt>
      <trkpt lat="43.561917" lon="16.551906">
        <time>1970-01-01T00:00:00+00:00</time>
        <ele>648.0</ele>
      </trkpt>
      <trkpt lat="43.562097" lon="16.551658">
        <time>1970-01-01T00:00:00+00:00</time>
        <ele>642.0</ele>
      </trkpt>
      <trkpt lat="43.562177" lon="16.551463">
        <time>1970-01-01T00:00:00+00:00</time>
        <ele>638.0</ele>
      </trkpt>
      <trkpt lat="43.562205" lon="16.55135">
        <time>1970-01-01T00:00:00+00:00</time>
        <ele>636.0</ele>
      </trkpt>
      <trkpt lat="43.562193" lon="16.551262">
        <time>1970-01-01T00:00:00+00:00</time>
        <ele>635.0</ele>
      </trkpt>
      <trkpt lat="43.56224" lon="16.551086">
        <time>1970-01-01T00:00:00+00:00</time>
        <ele>633.0</ele>
      </trkpt>
      <trkpt lat="43.562268" lon="16.550866">
        <time>1970-01-01T00:00:00+00:00</time>
        <ele>631.0</ele>
      </trkpt>
      <trkpt lat="43.562268" lon="16.550541">
        <time>1970-01-01T00:00:00+00:00</time>
        <ele>629.0</ele>
      </trkpt>
      <trkpt lat="43.562358" lon="16.550291">
        <time>1970-01-01T00:00:00+00:00</time>
        <ele>631.0</ele>
      </trkpt>
      <trkpt lat="43.562332" lon="16.550192">
        <time>1970-01-01T00:00:00+00:00</time>
        <ele>629.0</ele>
      </trkpt>
      <trkpt lat="43.562402" lon="16.54987">
        <time>1970-01-01T00:00:00+00:00</time>
        <ele>627.0</ele>
      </trkpt>
      <trkpt lat="43.562404" lon="16.549729">
        <time>1970-01-01T00:00:00+00:00</time>
        <ele>626.0</ele>
      </trkpt>
      <trkpt lat="43.562376" lon="16.549677">
        <time>1970-01-01T00:00:00+00:00</time>
        <ele>625.0</ele>
      </trkpt>
      <trkpt lat="43.562422" lon="16.549556">
        <time>1970-01-01T00:00:00+00:00</time>
        <ele>625.0</ele>
      </trkpt>
      <trkpt lat="43.562456" lon="16.549388">
        <time>1970-01-01T00:00:00+00:00</time>
        <ele>625.0</ele>
      </trkpt>
      <trkpt lat="43.562424" lon="16.549256">
        <time>1970-01-01T00:00:00+00:00</time>
        <ele>623.0</ele>
      </trkpt>
      <trkpt lat="43.56244" lon="16.549036">
        <time>1970-01-01T00:00:00+00:00</time>
        <ele>623.0</ele>
      </trkpt>
      <trkpt lat="43.562464" lon="16.548989">
        <time>1970-01-01T00:00:00+00:00</time>
        <ele>623.0</ele>
      </trkpt>
      <trkpt lat="43.562472" lon="16.548777">
        <time>1970-01-01T00:00:00+00:00</time>
        <ele>619.0</ele>
      </trkpt>
      <trkpt lat="43.56252" lon="16.548755">
        <time>1970-01-01T00:00:00+00:00</time>
        <ele>620.0</ele>
      </trkpt>
      <trkpt lat="43.56253" lon="16.548697">
        <time>1970-01-01T00:00:00+00:00</time>
        <ele>618.0</ele>
      </trkpt>
      <trkpt lat="43.562514" lon="16.548645">
        <time>1970-01-01T00:00:00+00:00</time>
        <ele>615.0</ele>
      </trkpt>
      <trkpt lat="43.56255" lon="16.548513">
        <time>1970-01-01T00:00:00+00:00</time>
        <ele>612.0</ele>
      </trkpt>
      <trkpt lat="43.562587" lon="16.548499">
        <time>1970-01-01T00:00:00+00:00</time>
        <ele>612.0</ele>
      </trkpt>
      <trkpt lat="43.562661" lon="16.548422">
        <time>1970-01-01T00:00:00+00:00</time>
        <ele>611.0</ele>
      </trkpt>
      <trkpt lat="43.562659" lon="16.548356">
        <time>1970-01-01T00:00:00+00:00</time>
        <ele>609.0</ele>
      </trkpt>
      <trkpt lat="43.562689" lon="16.548386">
        <time>1970-01-01T00:00:00+00:00</time>
        <ele>611.0</ele>
      </trkpt>
      <trkpt lat="43.562721" lon="16.54835">
        <time>1970-01-01T00:00:00+00:00</time>
        <ele>611.0</ele>
      </trkpt>
      <trkpt lat="43.562785" lon="16.548205">
        <time>1970-01-01T00:00:00+00:00</time>
        <ele>609.0</ele>
      </trkpt>
      <trkpt lat="43.562823" lon="16.548169">
        <time>1970-01-01T00:00:00+00:00</time>
        <ele>609.0</ele>
      </trkpt>
      <trkpt lat="43.562833" lon="16.548108">
        <time>1970-01-01T00:00:00+00:00</time>
        <ele>608.0</ele>
      </trkpt>
      <trkpt lat="43.56295" lon="16.548062">
        <time>1970-01-01T00:00:00+00:00</time>
        <ele>609.0</ele>
      </trkpt>
      <trkpt lat="43.56304" lon="16.547982">
        <time>1970-01-01T00:00:00+00:00</time>
        <ele>606.0</ele>
      </trkpt>
      <trkpt lat="43.563076" lon="16.547907">
        <time>1970-01-01T00:00:00+00:00</time>
        <ele>604.0</ele>
      </trkpt>
      <trkpt lat="43.56308" lon="16.547764">
        <time>1970-01-01T00:00:00+00:00</time>
        <ele>602.0</ele>
      </trkpt>
      <trkpt lat="43.563134" lon="16.547572">
        <time>1970-01-01T00:00:00+00:00</time>
        <ele>598.0</ele>
      </trkpt>
      <trkpt lat="43.563112" lon="16.547492">
        <time>1970-01-01T00:00:00+00:00</time>
        <ele>596.0</ele>
      </trkpt>
      <trkpt lat="43.56311" lon="16.547324">
        <time>1970-01-01T00:00:00+00:00</time>
        <ele>593.0</ele>
      </trkpt>
      <trkpt lat="43.563082" lon="16.547195">
        <time>1970-01-01T00:00:00+00:00</time>
        <ele>589.0</ele>
      </trkpt>
      <trkpt lat="43.563164" lon="16.547013">
        <time>1970-01-01T00:00:00+00:00</time>
        <ele>584.0</ele>
      </trkpt>
      <trkpt lat="43.563166" lon="16.546944">
        <time>1970-01-01T00:00:00+00:00</time>
        <ele>581.0</ele>
      </trkpt>
      <trkpt lat="43.56313" lon="16.546826">
        <time>1970-01-01T00:00:00+00:00</time>
        <ele>578.0</ele>
      </trkpt>
      <trkpt lat="43.563166" lon="16.546707">
        <time>1970-01-01T00:00:00+00:00</time>
        <ele>574.0</ele>
      </trkpt>
      <trkpt lat="43.563164" lon="16.546619">
        <time>1970-01-01T00:00:00+00:00</time>
        <ele>572.0</ele>
      </trkpt>
      <trkpt lat="43.563126" lon="16.546484">
        <time>1970-01-01T00:00:00+00:00</time>
        <ele>568.0</ele>
      </trkpt>
      <trkpt lat="43.5631" lon="16.546452">
        <time>1970-01-01T00:00:00+00:00</time>
        <ele>567.0</ele>
      </trkpt>
      <trkpt lat="43.563116" lon="16.546319">
        <time>1970-01-01T00:00:00+00:00</time>
        <ele>563.0</ele>
      </trkpt>
      <trkpt lat="43.563104" lon="16.546215">
        <time>1970-01-01T00:00:00+00:00</time>
        <ele>559.0</ele>
      </trkpt>
      <trkpt lat="43.563056" lon="16.546077">
        <time>1970-01-01T00:00:00+00:00</time>
        <ele>554.0</ele>
      </trkpt>
      <trkpt lat="43.563062" lon="16.546008">
        <time>1970-01-01T00:00:00+00:00</time>
        <ele>553.0</ele>
      </trkpt>
      <trkpt lat="43.563142" lon="16.545775">
        <time>1970-01-01T00:00:00+00:00</time>
        <ele>550.0</ele>
      </trkpt>
      <trkpt lat="43.563164" lon="16.545513">
        <time>1970-01-01T00:00:00+00:00</time>
        <ele>545.0</ele>
      </trkpt>
      <trkpt lat="43.563124" lon="16.545398">
        <time>1970-01-01T00:00:00+00:00</time>
        <ele>542.0</ele>
      </trkpt>
      <trkpt lat="43.563154" lon="16.545274">
        <time>1970-01-01T00:00:00+00:00</time>
        <ele>537.0</ele>
      </trkpt>
      <trkpt lat="43.563152" lon="16.545095">
        <time>1970-01-01T00:00:00+00:00</time>
        <ele>531.0</ele>
      </trkpt>
      <trkpt lat="43.563132" lon="16.54504">
        <time>1970-01-01T00:00:00+00:00</time>
        <ele>530.0</ele>
      </trkpt>
      <trkpt lat="43.563106" lon="16.545026">
        <time>1970-01-01T00:00:00+00:00</time>
        <ele>529.0</ele>
      </trkpt>
      <trkpt lat="43.563102" lon="16.544987">
        <time>1970-01-01T00:00:00+00:00</time>
        <ele>528.0</ele>
      </trkpt>
      <trkpt lat="43.563168" lon="16.544905">
        <time>1970-01-01T00:00:00+00:00</time>
        <ele>527.0</ele>
      </trkpt>
      <trkpt lat="43.563178" lon="16.544792">
        <time>1970-01-01T00:00:00+00:00</time>
        <ele>524.0</ele>
      </trkpt>
      <trkpt lat="43.563154" lon="16.544718">
        <time>1970-01-01T00:00:00+00:00</time>
        <ele>523.0</ele>
      </trkpt>
      <trkpt lat="43.563172" lon="16.544624">
        <time>1970-01-01T00:00:00+00:00</time>
        <ele>521.0</ele>
      </trkpt>
      <trkpt lat="43.563142" lon="16.544511">
        <time>1970-01-01T00:00:00+00:00</time>
        <ele>518.0</ele>
      </trkpt>
      <trkpt lat="43.56318" lon="16.544244">
        <time>1970-01-01T00:00:00+00:00</time>
        <ele>513.0</ele>
      </trkpt>
      <trkpt lat="43.563132" lon="16.544079">
        <time>1970-01-01T00:00:00+00:00</time>
        <ele>511.0</ele>
      </trkpt>
      <trkpt lat="43.563136" lon="16.543972">
        <time>1970-01-01T00:00:00+00:00</time>
        <ele>510.0</ele>
      </trkpt>
      <trkpt lat="43.563172" lon="16.543977">
        <time>1970-01-01T00:00:00+00:00</time>
        <ele>510.0</ele>
      </trkpt>
      <trkpt lat="43.563218" lon="16.543911">
        <time>1970-01-01T00:00:00+00:00</time>
        <ele>510.0</ele>
      </trkpt>
      <trkpt lat="43.563295" lon="16.543749">
        <time>1970-01-01T00:00:00+00:00</time>
        <ele>508.0</ele>
      </trkpt>
      <trkpt lat="43.563355" lon="16.543666">
        <time>1970-01-01T00:00:00+00:00</time>
        <ele>506.0</ele>
      </trkpt>
      <trkpt lat="43.563391" lon="16.543507">
        <time>1970-01-01T00:00:00+00:00</time>
        <ele>503.0</ele>
      </trkpt>
      <trkpt lat="43.563439" lon="16.543433">
        <time>1970-01-01T00:00:00+00:00</time>
        <ele>501.0</ele>
      </trkpt>
      <trkpt lat="43.563527" lon="16.543422">
        <time>1970-01-01T00:00:00+00:00</time>
        <ele>499.0</ele>
      </trkpt>
      <trkpt lat="43.563533" lon="16.543388">
        <time>1970-01-01T00:00:00+00:00</time>
        <ele>498.0</ele>
      </trkpt>
      <trkpt lat="43.56363" lon="16.543339">
        <time>1970-01-01T00:00:00+00:00</time>
        <ele>496.0</ele>
      </trkpt>
      <trkpt lat="43.563716" lon="16.543251">
        <time>1970-01-01T00:00:00+00:00</time>
        <ele>493.0</ele>
      </trkpt>
      <trkpt lat="43.563844" lon="16.543069">
        <time>1970-01-01T00:00:00+00:00</time>
        <ele>489.0</ele>
      </trkpt>
      <trkpt lat="43.563872" lon="16.542761">
        <time>1970-01-01T00:00:00+00:00</time>
        <ele>487.0</ele>
      </trkpt>
      <trkpt lat="43.563914" lon="16.542612">
        <time>1970-01-01T00:00:00+00:00</time>
        <ele>486.0</ele>
      </trkpt>
      <trkpt lat="43.563975" lon="16.542544">
        <time>1970-01-01T00:00:00+00:00</time>
        <ele>485.0</ele>
      </trkpt>
      <trkpt lat="43.564033" lon="16.542423">
        <time>1970-01-01T00:00:00+00:00</time>
        <ele>484.0</ele>
      </trkpt>
      <trkpt lat="43.564025" lon="16.542343">
        <time>1970-01-01T00:00:00+00:00</time>
        <ele>483.0</ele>
      </trkpt>
      <trkpt lat="43.564067" lon="16.542235">
        <time>1970-01-01T00:00:00+00:00</time>
        <ele>482.0</ele>
      </trkpt>
      <trkpt lat="43.564077" lon="16.542131">
        <time>1970-01-01T00:00:00+00:00</time>
        <ele>481.0</ele>
      </trkpt>
      <trkpt lat="43.564061" lon="16.542073">
        <time>1970-01-01T00:00:00+00:00</time>
        <ele>480.0</ele>
      </trkpt>
      <trkpt lat="43.564095" lon="16.541902">
        <time>1970-01-01T00:00:00+00:00</time>
        <ele>479.0</ele>
      </trkpt>
      <trkpt lat="43.564113" lon="16.541685">
        <time>1970-01-01T00:00:00+00:00</time>
        <ele>476.0</ele>
      </trkpt>
      <trkpt lat="43.564113" lon="16.541635">
        <time>1970-01-01T00:00:00+00:00</time>
        <ele>475.0</ele>
      </trkpt>
      <trkpt lat="43.564077" lon="16.541602">
        <time>1970-01-01T00:00:00+00:00</time>
        <ele>474.0</ele>
      </trkpt>
      <trkpt lat="43.564047" lon="16.541487">
        <time>1970-01-01T00:00:00+00:00</time>
        <ele>471.0</ele>
      </trkpt>
      <trkpt lat="43.564013" lon="16.541435">
        <time>1970-01-01T00:00:00+00:00</time>
        <ele>470.0</ele>
      </trkpt>
      <trkpt lat="43.564041" lon="16.541195">
        <time>1970-01-01T00:00:00+00:00</time>
        <ele>469.0</ele>
      </trkpt>
      <trkpt lat="43.563989" lon="16.541165">
        <time>1970-01-01T00:00:00+00:00</time>
        <ele>467.0</ele>
      </trkpt>
      <trkpt lat="43.563953" lon="16.541179">
        <time>1970-01-01T00:00:00+00:00</time>
        <ele>466.0</ele>
      </trkpt>
      <trkpt lat="43.56393" lon="16.541118">
        <time>1970-01-01T00:00:00+00:00</time>
        <ele>465.0</ele>
      </trkpt>
      <trkpt lat="43.563892" lon="16.541077">
        <time>1970-01-01T00:00:00+00:00</time>
        <ele>463.0</ele>
      </trkpt>
      <trkpt lat="43.563902" lon="16.541024">
        <time>1970-01-01T00:00:00+00:00</time>
        <ele>462.0</ele>
      </trkpt>
      <trkpt lat="43.564003" lon="16.540848">
        <time>1970-01-01T00:00:00+00:00</time>
        <ele>463.0</ele>
      </trkpt>
      <trkpt lat="43.563993" lon="16.540791">
        <time>1970-01-01T00:00:00+00:00</time>
        <ele>462.0</ele>
      </trkpt>
      <trkpt lat="43.564019" lon="16.540752">
        <time>1970-01-01T00:00:00+00:00</time>
        <ele>461.0</ele>
      </trkpt>
      <trkpt lat="43.564059" lon="16.540741">
        <time>1970-01-01T00:00:00+00:00</time>
        <ele>462.0</ele>
      </trkpt>
      <trkpt lat="43.564069" lon="16.540694">
        <time>1970-01-01T00:00:00+00:00</time>
        <ele>461.0</ele>
      </trkpt>
      <trkpt lat="43.564137" lon="16.540623">
        <time>1970-01-01T00:00:00+00:00</time>
        <ele>459.0</ele>
      </trkpt>
      <trkpt lat="43.564115" lon="16.540617">
        <time>1970-01-01T00:00:00+00:00</time>
        <ele>459.0</ele>
      </trkpt>
      <trkpt lat="43.564139" lon="16.540559">
        <time>1970-01-01T00:00:00+00:00</time>
        <ele>457.0</ele>
      </trkpt>
      <trkpt lat="43.564213" lon="16.54048">
        <time>1970-01-01T00:00:00+00:00</time>
        <ele>456.0</ele>
      </trkpt>
      <trkpt lat="43.564241" lon="16.540317">
        <time>1970-01-01T00:00:00+00:00</time>
        <ele>452.0</ele>
      </trkpt>
      <trkpt lat="43.564298" lon="16.540196">
        <time>1970-01-01T00:00:00+00:00</time>
        <ele>450.0</ele>
      </trkpt>
      <trkpt lat="43.56447" lon="16.539932">
        <time>1970-01-01T00:00:00+00:00</time>
        <ele>445.0</ele>
      </trkpt>
      <trkpt lat="43.564434" lon="16.539858">
        <time>1970-01-01T00:00:00+00:00</time>
        <ele>442.0</ele>
      </trkpt>
      <trkpt lat="43.564444" lon="16.539814">
        <time>1970-01-01T00:00:00+00:00</time>
        <ele>442.0</ele>
      </trkpt>
      <trkpt lat="43.564524" lon="16.539753">
        <time>1970-01-01T00:00:00+00:00</time>
        <ele>441.0</ele>
      </trkpt>
      <trkpt lat="43.564606" lon="16.539566">
        <time>1970-01-01T00:00:00+00:00</time>
        <ele>439.0</ele>
      </trkpt>
      <trkpt lat="43.564614" lon="16.539494">
        <time>1970-01-01T00:00:00+00:00</time>
        <ele>437.0</ele>
      </trkpt>
      <trkpt lat="43.564649" lon="16.539395">
        <time>1970-01-01T00:00:00+00:00</time>
        <ele>436.0</ele>
      </trkpt>
      <trkpt lat="43.564927" lon="16.539227">
        <time>1970-01-01T00:00:00+00:00</time>
        <ele>435.0</ele>
      </trkpt>
      <trkpt lat="43.564975" lon="16.539084">
        <time>1970-01-01T00:00:00+00:00</time>
        <ele>433.0</ele>
      </trkpt>
      <trkpt lat="43.564984" lon="16.538982">
        <time>1970-01-01T00:00:00+00:00</time>
        <ele>432.0</ele>
      </trkpt>
      <trkpt lat="43.564955" lon="16.538859">
        <time>1970-01-01T00:00:00+00:00</time>
        <ele>430.0</ele>
      </trkpt>
      <trkpt lat="43.564905" lon="16.53874">
        <time>1970-01-01T00:00:00+00:00</time>
        <ele>429.0</ele>
      </trkpt>
      <trkpt lat="43.564837" lon="16.538671">
        <time>1970-01-01T00:00:00+00:00</time>
        <ele>427.0</ele>
      </trkpt>
      <trkpt lat="43.564801" lon="16.538545">
        <time>1970-01-01T00:00:00+00:00</time>
        <ele>426.0</ele>
      </trkpt>
      <trkpt lat="43.564791" lon="16.538157">
        <time>1970-01-01T00:00:00+00:00</time>
        <ele>424.0</ele>
      </trkpt>
      <trkpt lat="43.564773" lon="16.538077">
        <time>1970-01-01T00:00:00+00:00</time>
        <ele>423.0</ele>
      </trkpt>
      <trkpt lat="43.564655" lon="16.537994">
        <time>1970-01-01T00:00:00+00:00</time>
        <ele>424.0</ele>
      </trkpt>
      <trkpt lat="43.564544" lon="16.537593">
        <time>1970-01-01T00:00:00+00:00</time>
        <ele>422.0</ele>
      </trkpt>
      <trkpt lat="43.564568" lon="16.537359">
        <time>1970-01-01T00:00:00+00:00</time>
        <ele>421.0</ele>
      </trkpt>
      <trkpt lat="43.564821" lon="16.537262">
        <time>1970-01-01T00:00:00+00:00</time>
        <ele>416.0</ele>
      </trkpt>
      <trkpt lat="43.565102" lon="16.537012">
        <time>1970-01-01T00:00:00+00:00</time>
        <ele>411.0</ele>
      </trkpt>
      <trkpt lat="43.565262" lon="16.536924">
        <time>1970-01-01T00:00:00+00:00</time>
        <ele>409.0</ele>
      </trkpt>
      <trkpt lat="43.565417" lon="16.536918">
        <time>1970-01-01T00:00:00+00:00</time>
        <ele>407.0</ele>
      </trkpt>
      <trkpt lat="43.565485" lon="16.536894">
        <time>1970-01-01T00:00:00+00:00</time>
        <ele>406.0</ele>
      </trkpt>
      <trkpt lat="43.565527" lon="16.536855">
        <time>1970-01-01T00:00:00+00:00</time>
        <ele>405.0</ele>
      </trkpt>
      <trkpt lat="43.565569" lon="16.536734">
        <time>1970-01-01T00:00:00+00:00</time>
        <ele>404.0</ele>
      </trkpt>
      <trkpt lat="43.565639" lon="16.536423">
        <time>1970-01-01T00:00:00+00:00</time>
        <ele>401.0</ele>
      </trkpt>
      <trkpt lat="43.565698" lon="16.536382">
        <time>1970-01-01T00:00:00+00:00</time>
        <ele>400.0</ele>
      </trkpt>
      <trkpt lat="43.565752" lon="16.536409">
        <time>1970-01-01T00:00:00+00:00</time>
        <ele>399.0</ele>
      </trkpt>
      <trkpt lat="43.565822" lon="16.536404">
        <time>1970-01-01T00:00:00+00:00</time>
        <ele>398.0</ele>
      </trkpt>
      <trkpt lat="43.565948" lon="16.536332">
        <time>1970-01-01T00:00:00+00:00</time>
        <ele>396.0</ele>
      </trkpt>
      <trkpt lat="43.566069" lon="16.535996">
        <time>1970-01-01T00:00:00+00:00</time>
        <ele>394.0</ele>
      </trkpt>
      <trkpt lat="43.566233" lon="16.535732">
        <time>1970-01-01T00:00:00+00:00</time>
        <ele>392.0</ele>
      </trkpt>
      <trkpt lat="43.566325" lon="16.535489">
        <time>1970-01-01T00:00:00+00:00</time>
        <ele>390.0</ele>
      </trkpt>
      <trkpt lat="43.56647" lon="16.535325">
        <time>1970-01-01T00:00:00+00:00</time>
        <ele>388.0</ele>
      </trkpt>
      <trkpt lat="43.56655" lon="16.535193">
        <time>1970-01-01T00:00:00+00:00</time>
        <ele>386.0</ele>
      </trkpt>
      <trkpt lat="43.566704" lon="16.535062">
        <time>1970-01-01T00:00:00+00:00</time>
        <ele>383.0</ele>
      </trkpt>
      <trkpt lat="43.566801" lon="16.535031">
        <time>1970-01-01T00:00:00+00:00</time>
        <ele>382.0</ele>
      </trkpt>
      <trkpt lat="43.566861" lon="16.534983">
        <time>1970-01-01T00:00:00+00:00</time>
        <ele>381.0</ele>
      </trkpt>
      <trkpt lat="43.566941" lon="16.534887">
        <time>1970-01-01T00:00:00+00:00</time>
        <ele>380.0</ele>
      </trkpt>
      <trkpt lat="43.566996" lon="16.534782">
        <time>1970-01-01T00:00:00+00:00</time>
        <ele>379.0</ele>
      </trkpt>
      <trkpt lat="43.566997" lon="16.534692">
        <time>1970-01-01T00:00:00+00:00</time>
        <ele>378.0</ele>
      </trkpt>
      <trkpt lat="43.567204" lon="16.534507">
        <time>1970-01-01T00:00:00+00:00</time>
        <ele>378.0</ele>
      </trkpt>
      <trkpt lat="43.567351" lon="16.534738">
        <time>1970-01-01T00:00:00+00:00</time>
        <ele>377.0</ele>
      </trkpt>
      <trkpt lat="43.567585" lon="16.534913">
        <time>1970-01-01T00:00:00+00:00</time>
        <ele>376.0</ele>
      </trkpt>
      <trkpt lat="43.567942" lon="16.534942">
        <time>1970-01-01T00:00:00+00:00</time>
        <ele>375.0</ele>
      </trkpt>
      <trkpt lat="43.56831" lon="16.534913">
        <time>1970-01-01T00:00:00+00:00</time>
        <ele>373.0</ele>
      </trkpt>
      <trkpt lat="43.568498" lon="16.53485">
        <time>1970-01-01T00:00:00+00:00</time>
        <ele>372.0</ele>
      </trkpt>
      <trkpt lat="43.568551" lon="16.534993">
        <time>1970-01-01T00:00:00+00:00</time>
        <ele>371.0</ele>
      </trkpt>
      <trkpt lat="43.568725" lon="16.534918">
        <time>1970-01-01T00:00:00+00:00</time>
        <ele>371.0</ele>
      </trkpt>
      <trkpt lat="43.568793" lon="16.534956">
        <time>1970-01-01T00:00:00+00:00</time>
        <ele>370.0</ele>
      </trkpt>
      <trkpt lat="43.568892" lon="16.534861">
        <time>1970-01-01T00:00:00+00:00</time>
        <ele>371.0</ele>
      </trkpt>
      <trkpt lat="43.569022" lon="16.534875">
        <time>1970-01-01T00:00:00+00:00</time>
        <ele>370.0</ele>
      </trkpt>
      <trkpt lat="43.569084" lon="16.534904">
        <time>1970-01-01T00:00:00+00:00</time>
        <ele>370.0</ele>
      </trkpt>
      <trkpt lat="43.56919" lon="16.534824">
        <time>1970-01-01T00:00:00+00:00</time>
        <ele>370.0</ele>
      </trkpt>
      <trkpt lat="43.569344" lon="16.534932">
        <time>1970-01-01T00:00:00+00:00</time>
        <ele>369.0</ele>
      </trkpt>
      <trkpt lat="43.569552" lon="16.535262">
        <time>1970-01-01T00:00:00+00:00</time>
        <ele>367.0</ele>
      </trkpt>
      <trkpt lat="43.569792" lon="16.535536">
        <time>1970-01-01T00:00:00+00:00</time>
        <ele>367.0</ele>
      </trkpt>
      <trkpt lat="43.569905" lon="16.53551">
        <time>1970-01-01T00:00:00+00:00</time>
        <ele>368.0</ele>
      </trkpt>
      <trkpt lat="43.570034" lon="16.535479">
        <time>1970-01-01T00:00:00+00:00</time>
        <ele>369.0</ele>
      </trkpt>
      <trkpt lat="43.570145" lon="16.535574">
        <time>1970-01-01T00:00:00+00:00</time>
        <ele>369.0</ele>
      </trkpt>
      <trkpt lat="43.570914" lon="16.535593">
        <time>1970-01-01T00:00:00+00:00</time>
        <ele>365.0</ele>
      </trkpt>
      <trkpt lat="43.571211" lon="16.535513">
        <time>1970-01-01T00:00:00+00:00</time>
        <ele>363.0</ele>
      </trkpt>
      <trkpt lat="43.571437" lon="16.535409">
        <time>1970-01-01T00:00:00+00:00</time>
        <ele>361.0</ele>
      </trkpt>
      <trkpt lat="43.571519" lon="16.534923">
        <time>1970-01-01T00:00:00+00:00</time>
        <ele>362.0</ele>
      </trkpt>
      <trkpt lat="43.571356" lon="16.533899">
        <time>1970-01-01T00:00:00+00:00</time>
        <ele>360.0</ele>
      </trkpt>
      <trkpt lat="43.571482" lon="16.533811">
        <time>1970-01-01T00:00:00+00:00</time>
        <ele>359.0</ele>
      </trkpt>
      <trkpt lat="43.571531" lon="16.533703">
        <time>1970-01-01T00:00:00+00:00</time>
        <ele>358.0</ele>
      </trkpt>
      <trkpt lat="43.57155" lon="16.533392">
        <time>1970-01-01T00:00:00+00:00</time>
        <ele>355.0</ele>
      </trkpt>
      <trkpt lat="43.571585" lon="16.5332">
        <time>1970-01-01T00:00:00+00:00</time>
        <ele>353.0</ele>
      </trkpt>
      <trkpt lat="43.571758" lon="16.533039">
        <time>1970-01-01T00:00:00+00:00</time>
        <ele>354.0</ele>
      </trkpt>
      <trkpt lat="43.572053" lon="16.532819">
        <time>1970-01-01T00:00:00+00:00</time>
        <ele>354.0</ele>
      </trkpt>
      <trkpt lat="43.572377" lon="16.532618">
        <time>1970-01-01T00:00:00+00:00</time>
        <ele>353.0</ele>
      </trkpt>
      <trkpt lat="43.572621" lon="16.53242">
        <time>1970-01-01T00:00:00+00:00</time>
        <ele>351.0</ele>
      </trkpt>
      <trkpt lat="43.572788" lon="16.532079">
        <time>1970-01-01T00:00:00+00:00</time>
        <ele>345.0</ele>
      </trkpt>
      <trkpt lat="43.572882" lon="16.531777">
        <time>1970-01-01T00:00:00+00:00</time>
        <ele>344.0</ele>
      </trkpt>
      <trkpt lat="43.572932" lon="16.531605">
        <time>1970-01-01T00:00:00+00:00</time>
        <ele>344.0</ele>
      </trkpt>
      <trkpt lat="43.572992" lon="16.531669">
        <time>1970-01-01T00:00:00+00:00</time>
        <ele>344.0</ele>
      </trkpt>
      <trkpt lat="43.573126" lon="16.531845">
        <time>1970-01-01T00:00:00+00:00</time>
        <ele>346.0</ele>
      </trkpt>
    </trkseg>
  </trk>
</gpx>
